sat.trackr.live / text

‹ back to catalog

STARLINK-35130

NORAD 65740 · 2025-216G

PAYLOAD ACTIVE UNKNOWN

§ Identity

Operator
Country
US
Launch date
2025-09-25
Launch site
AFETR
Launch vehicle
Mass (kg)
RCS (m²)

Purposes: comms

External: N2YO · Heavens-Above · Gunter

§ Orbital elements

Epoch: 2026-05-24T23:11:44.036160Z

Period
94.10 min
Inclination
53.1589°
Eccentricity
0.0000951
Mean motion
15.30208656 rev/d
Perigee alt
474.5 km
Apogee alt
475.8 km
Semi-major
6,853.3 km
B*
3.5028e-4
RAAN
338.4714°
Arg perigee
80.6633°
Mean anomaly
279.4475°
Rev number
3,827

§ Raw data

STARLINK-351301 65740U 25216G   26144.96648190  .00010032  00000+0  35028-3 0  99942 65740  53.1589 338.4714 0000951  80.6633 279.4475 15.30208656 38270

JSON: /api/v1/satellites/65740 · /tle

For live sub-satellite position, see the globe view (requires WebGL).

§ Visibility from observer

Set your observer location to see the next 7 days of passes ≥ 10°. The values pass through the URL so the page stays shareable.

No JS? Fill the form by hand. The geolocation button needs JavaScript.